Homer, AK

7:59 AM AKST on February 27, 2017 (GMT -0900)
Homer

Weather History for PAHO - January, 2012

Change the Weather History Date:

Saturday, January 28, 2012

  Actual Average Record
Temperature  
Mean Temperature -4 °F -  
Max Temperature 1 °F 30 °F 45 °F (1936)
Min Temperature -9 °F 18 °F -24 °F (1989)
Degree Days  
Heating Degree Days 69    
Moisture  
Dew Point -7 °F    
Average Humidity 82    
Maximum Humidity 87    
Minimum Humidity 72    
Precipitation  
Precipitation 0.00 in - - ()
Sea Level Pressure  
Sea Level Pressure 29.70 in    
Wind  
Wind Speed 6 mph (NE)    
Max Wind Speed 15 mph    
Max Gust Speed -    
Visibility 10 miles    
Events      
Averages and records for this station are not official NWS values.
T = Trace of Precipitation, MM = Missing Value Source: NWS Daily Summary

Daily Weather History Graph

Daily Weather History Graph

Search for Another Location

Airport or City:

Trip Planner

Search our weather history database for the weather conditions in past years. The results will help you decide how hot, cold, wet, or windy it might be!

Date:

Astronomy

Jan. 28, 2012 Rise Set
Actual Time 9:27 AM AKST 5:11 PM AKST
Civil Twilight 8:39 AM AKST 5:59 PM AKST
Nautical Twilight 7:48 AM AKST 6:50 PM AKST
Astronomical Twilight 7:00 AM AKST 7:38 PM AKST
Moon 10:12 AM AKST (1/28) No Moon Set
Length of Visible Light 9h 19m
Length of Day
7h 44m
Waxing Crescent, 29% of the Moon is Illuminated
Jan 28
Waxing Crescent
Jan 30
First Quarter
Feb 7
Full
Feb 14
Last Quarter
Feb 21
New

Hourly Weather History & Observations

Time (AKST) Temp. Windchill Dew Point Humidity Pressure Visibility Wind Dir Wind Speed Gust Speed Precip Events Conditions
12:53 AM -8.0 °F -21.0 °F -11.0 °F 86% 29.93 in 10.0 mi NNE 5.8 mph - N/A   Clear
1:53 AM -7.1 °F -15.9 °F -9.9 °F 87% 29.91 in 10.0 mi NNE 3.5 mph - N/A   Clear
3:53 AM -9.9 °F - -14.1 °F 82% 29.89 in 10.0 mi Calm Calm - N/A   Clear
4:53 AM -6.0 °F -21.5 °F -9.9 °F 83% 29.87 in 10.0 mi NE 8.1 mph - N/A   Clear
5:53 AM -5.1 °F -15.8 °F -8.0 °F 87% 29.83 in 10.0 mi NE 4.6 mph - N/A   Clear
6:53 AM -6.0 °F -21.5 °F -9.0 °F 87% 29.81 in 10.0 mi NE 8.1 mph - N/A   Clear
7:53 AM -6.0 °F -18.6 °F -9.0 °F 87% 29.78 in 10.0 mi NE 5.8 mph - N/A   Clear
8:53 AM -6.0 °F -14.7 °F -9.0 °F 87% 29.76 in 10.0 mi NNE 3.5 mph - N/A   Clear
9:53 AM -6.0 °F -16.9 °F -9.0 °F 87% 29.75 in 10.0 mi NNE 4.6 mph - N/A   Scattered Clouds
10:53 AM -6.0 °F -18.6 °F -9.0 °F 87% 29.74 in 10.0 mi NE 5.8 mph - N/A   Scattered Clouds
11:53 AM -0.0 °F -7.9 °F -4.0 °F 83% 29.72 in 10.0 mi NE 3.5 mph - N/A   Mostly Cloudy
12:53 PM 1.0 °F -12.9 °F -2.9 °F 83% 29.70 in 10.0 mi NE 8.1 mph - N/A   Clear
1:53 PM 1.9 °F -16.2 °F -2.9 °F 80% 29.67 in 10.0 mi ENE 13.8 mph - N/A   Clear
2:53 PM 1.9 °F -10.6 °F -2.0 °F 83% 29.65 in 10.0 mi NE 6.9 mph - N/A   Mostly Cloudy
3:53 PM 1.9 °F -10.6 °F -2.9 °F 80% 29.63 in 10.0 mi NE 6.9 mph - N/A   Clear
4:53 PM -0.0 °F -11.6 °F -5.1 °F 79% 29.61 in 10.0 mi NE 5.8 mph - N/A   Clear
5:53 PM 1.0 °F -14.9 °F -4.0 °F 79% 29.60 in 10.0 mi NE 10.4 mph - N/A   Clear
6:53 PM 1.0 °F -18.0 °F -5.1 °F 75% 29.59 in 10.0 mi ENE 15.0 mph - N/A   Clear
7:53 PM 1.0 °F -15.8 °F -5.1 °F 75% 29.57 in 10.0 mi ENE 11.5 mph - N/A   Clear
8:53 PM 1.0 °F -16.6 °F -6.0 °F 72% 29.57 in 10.0 mi NE 12.7 mph - N/A   Clear
9:53 PM -0.0 °F -15.3 °F -6.0 °F 76% 29.55 in 10.0 mi ENE 9.2 mph - N/A   Clear
10:53 PM 1.0 °F -15.8 °F -5.1 °F 75% 29.53 in 10.0 mi ENE 11.5 mph - N/A   Clear
11:53 PM 1.0 °F -6.7 °F -4.0 °F 79% 29.52 in 10.0 mi NNE 3.5 mph - N/A   Clear